Time,TemperatureF,DewpointF,PressureIn,WindDirection,WindDirectionDegrees,WindSpeedMPH,WindSpeedGustMPH,Humidity,HourlyPrecipIn,Conditions,Clouds,dailyrainin,SoftwareType,DateUTC
2013-01-05 00:00:00,1.4,-1.6,29.84,South,180,0.0,0.0,87,0.00,,,0.00,WUHU216HW,2013-01-05 09:00:00,
2013-01-05 00:05:00,1.4,-1.6,29.84,South,180,0.0,0.0,87,0.00,,,0.00,WUHU216HW,2013-01-05 09:05:00,
2013-01-05 00:30:00,2.2,-0.9,29.84,South,180,0.0,0.0,87,0.00,,,0.00,WUHU216HW,2013-01-05 09:30:00,
2013-01-05 00:35:00,2.2,-0.9,29.84,South,180,0.0,0.0,87,0.00,,,0.00,WUHU216HW,2013-01-05 09:35:00,
2013-01-05 01:00:00,2.5,-0.5,29.83,South,180,0.0,0.0,87,0.00,,,0.00,WUHU216HW,2013-01-05 10:00:00,
2013-01-05 01:05:00,2.5,-0.5,29.83,South,180,0.0,0.0,87,0.00,,,0.00,WUHU216HW,2013-01-05 10:05:00,
2013-01-05 01:30:00,3.2,0.2,29.82,South,180,0.0,0.0,87,0.00,,,0.00,WUHU216HW,2013-01-05 10:30:00,
2013-01-05 01:35:00,3.2,0.2,29.82,South,180,0.0,0.0,87,0.00,,,0.00,WUHU216HW,2013-01-05 10:35:00,
2013-01-05 02:00:00,2.7,-0.6,29.82,South,180,0.0,0.0,86,0.00,,,0.00,WUHU216HW,2013-01-05 11:00:00,
2013-01-05 02:05:00,2.7,-0.6,29.82,South,180,0.0,0.0,86,0.00,,,0.00,WUHU216HW,2013-01-05 11:05:00,
2013-01-05 02:30:00,2.0,-1.3,29.80,South,180,0.0,0.0,86,0.00,,,0.00,WUHU216HW,2013-01-05 11:30:00,
2013-01-05 02:35:00,2.0,-1.3,29.80,South,180,0.0,0.0,86,0.00,,,0.00,WUHU216HW,2013-01-05 11:35:00,
2013-01-05 03:00:00,0.9,-2.7,29.79,South,180,0.0,0.0,85,0.00,,,0.00,WUHU216HW,2013-01-05 12:00:00,
2013-01-05 03:05:00,0.9,-2.7,29.79,South,180,0.0,0.0,85,0.00,,,0.00,WUHU216HW,2013-01-05 12:05:00,
2013-01-05 03:30:00,0.0,-3.5,29.78,South,180,0.0,0.0,85,0.00,,,0.00,WUHU216HW,2013-01-05 12:30:00,
2013-01-05 03:35:00,0.0,-3.5,29.78,South,180,0.0,0.0,85,0.00,,,0.00,WUHU216HW,2013-01-05 12:35:00,
2013-01-05 04:00:00,-0.7,-4.2,29.78,South,180,0.0,0.0,85,0.00,,,0.00,WUHU216HW,2013-01-05 13:00:00,
2013-01-05 04:05:00,-0.7,-4.2,29.78,South,180,0.0,0.0,85,0.00,,,0.00,WUHU216HW,2013-01-05 13:05:00,
2013-01-05 04:30:00,-1.3,-4.8,29.76,South,180,0.0,0.0,85,0.00,,,0.00,WUHU216HW,2013-01-05 13:30:00,
2013-01-05 04:35:00,-1.3,-4.8,29.76,South,180,0.0,0.0,85,0.00,,,0.00,WUHU216HW,2013-01-05 13:35:00,
2013-01-05 05:00:00,-2.5,-6.3,29.75,South,180,0.0,0.0,84,0.00,,,0.00,WUHU216HW,2013-01-05 14:00:00,
2013-01-05 05:05:00,-2.5,-6.3,29.75,South,180,0.0,0.0,84,0.00,,,0.00,WUHU216HW,2013-01-05 14:05:00,
2013-01-05 05:30:00,-3.2,-7.0,29.73,South,180,0.0,0.0,84,0.00,,,0.00,WUHU216HW,2013-01-05 14:30:00,
2013-01-05 05:35:00,-3.2,-7.0,29.73,South,180,0.0,0.0,84,0.00,,,0.00,WUHU216HW,2013-01-05 14:35:00,
2013-01-05 06:00:00,-3.6,-7.4,29.72,South,180,0.0,0.0,84,0.00,,,0.00,WUHU216HW,2013-01-05 15:00:00,
2013-01-05 06:05:00,-3.6,-7.4,29.72,South,180,0.0,0.0,84,0.00,,,0.00,WUHU216HW,2013-01-05 15:05:00,
2013-01-05 06:30:00,-4.0,-7.7,29.72,South,180,0.0,0.0,84,0.00,,,0.00,WUHU216HW,2013-01-05 15:30:00,
2013-01-05 06:35:00,-4.0,-7.7,29.72,South,180,0.0,0.0,84,0.00,,,0.00,WUHU216HW,2013-01-05 15:35:00,
2013-01-05 07:00:00,-4.9,-8.5,29.70,South,180,0.0,0.0,84,0.00,,,0.00,WUHU216HW,2013-01-05 16:00:00,
2013-01-05 07:05:00,-4.9,-8.5,29.70,South,180,0.0,0.0,84,0.00,,,0.00,WUHU216HW,2013-01-05 16:05:00,
2013-01-05 07:30:00,-5.4,-9.1,29.69,South,180,0.0,0.0,84,0.00,,,0.00,WUHU216HW,2013-01-05 16:30:00,
2013-01-05 07:35:00,-5.4,-9.1,29.69,South,180,0.0,0.0,84,0.00,,,0.00,WUHU216HW,2013-01-05 16:35:00,
2013-01-05 08:00:00,-5.6,-9.3,29.68,South,180,0.0,0.0,84,0.00,,,0.00,WUHU216HW,2013-01-05 17:00:00,
2013-01-05 08:05:00,-5.6,-9.3,29.68,South,180,0.0,0.0,84,0.00,,,0.00,WUHU216HW,2013-01-05 17:05:00,
2013-01-05 08:30:00,-5.8,-9.7,29.67,South,180,0.0,0.0,83,0.00,,,0.00,WUHU216HW,2013-01-05 17:30:00,
2013-01-05 08:35:00,-5.8,-9.7,29.67,South,180,0.0,0.0,83,0.00,,,0.00,WUHU216HW,2013-01-05 17:35:00,
2013-01-05 09:00:00,-5.4,-9.1,29.66,South,180,0.0,0.0,84,0.00,,,0.00,WUHU216HW,2013-01-05 18:00:00,
2013-01-05 09:05:00,-5.4,-9.1,29.66,South,180,0.0,0.0,84,0.00,,,0.00,WUHU216HW,2013-01-05 18:05:00,
2013-01-05 09:30:00,-5.2,-8.6,29.64,South,180,0.0,0.0,85,0.00,,,0.00,WUHU216HW,2013-01-05 18:30:00,
2013-01-05 09:35:00,-5.2,-8.6,29.64,South,180,0.0,0.0,85,0.00,,,0.00,WUHU216HW,2013-01-05 18:35:00,
2013-01-05 09:55:00,-5.6,-9.3,29.63,South,180,0.0,0.0,84,0.00,,,0.00,WUHU216HW,2013-01-05 18:55:00,
2013-01-05 10:00:00,-5.4,-9.1,29.64,South,180,0.0,0.0,84,0.00,,,0.00,WUHU216HW,2013-01-05 19:00:00,
2013-01-05 10:05:00,-5.2,-8.9,29.63,South,180,0.0,0.0,84,0.00,,,0.00,WUHU216HW,2013-01-05 19:05:00,
2013-01-05 10:10:00,-5.0,-8.4,29.63,South,180,0.0,0.0,85,0.00,,,0.00,WUHU216HW,2013-01-05 19:10:00,
2013-01-05 10:15:00,-5.0,-8.4,29.63,South,180,0.0,0.0,85,0.00,,,0.00,WUHU216HW,2013-01-05 19:15:00,
2013-01-05 10:20:00,-4.9,-8.4,29.63,South,180,0.0,0.0,85,0.00,,,0.00,WUHU216HW,2013-01-05 19:20:00,
2013-01-05 10:25:00,-4.9,-8.4,29.62,South,180,0.0,0.0,85,0.00,,,0.00,WUHU216HW,2013-01-05 19:25:00,
2013-01-05 10:30:00,-5.0,-8.4,29.62,South,180,0.0,0.0,85,0.00,,,0.00,WUHU216HW,2013-01-05 19:30:00,
2013-01-05 10:35:00,-5.0,-8.7,29.62,South,180,0.0,0.0,84,0.00,,,0.00,WUHU216HW,2013-01-05 19:35:00,
2013-01-05 10:40:00,-5.4,-9.1,29.62,South,180,0.0,0.0,84,0.00,,,0.00,WUHU216HW,2013-01-05 19:40:00,
2013-01-05 10:45:00,-5.4,-9.1,29.62,South,180,0.0,0.0,84,0.00,,,0.00,WUHU216HW,2013-01-05 19:45:00,
2013-01-05 10:50:00,-5.4,-9.1,29.62,South,180,0.0,0.0,84,0.00,,,0.00,WUHU216HW,2013-01-05 19:50:00,
2013-01-05 10:55:00,-5.4,-9.1,29.61,South,180,0.0,0.0,84,0.00,,,0.00,WUHU216HW,2013-01-05 19:55:00,
2013-01-05 11:00:00,-5.4,-9.1,29.61,South,180,0.0,0.0,84,0.00,,,0.00,WUHU216HW,2013-01-05 20:00:00,
2013-01-05 11:05:00,-5.2,-8.9,29.61,South,180,0.0,0.0,84,0.00,,,0.00,WUHU216HW,2013-01-05 20:05:00,
2013-01-05 11:10:00,-4.9,-8.5,29.61,South,180,0.0,0.0,84,0.00,,,0.00,WUHU216HW,2013-01-05 20:10:00,
2013-01-05 11:15:00,-4.7,-8.2,29.61,South,180,0.0,0.0,85,0.00,,,0.00,WUHU216HW,2013-01-05 20:15:00,
2013-01-05 11:20:00,-4.7,-8.4,29.61,South,180,0.0,0.0,84,0.00,,,0.00,WUHU216HW,2013-01-05 20:20:00,
2013-01-05 11:25:00,-4.7,-8.4,29.60,South,180,0.0,0.0,84,0.00,,,0.00,WUHU216HW,2013-01-05 20:25:00,
2013-01-05 11:30:00,-4.5,-8.2,29.60,South,180,0.0,0.0,84,0.00,,,0.00,WUHU216HW,2013-01-05 20:30:00,
2013-01-05 11:35:00,-4.3,-8.0,29.60,South,180,0.0,0.0,84,0.00,,,0.00,WUHU216HW,2013-01-05 20:35:00,
2013-01-05 11:40:00,-4.1,-7.9,29.60,South,180,0.0,0.0,84,0.00,,,0.00,WUHU216HW,2013-01-05 20:40:00,
2013-01-05 11:45:00,-4.3,-8.0,29.59,South,180,0.0,0.0,84,0.00,,,0.00,WUHU216HW,2013-01-05 20:45:00,
2013-01-05 11:50:00,-4.1,-7.9,29.59,South,180,0.0,0.0,84,0.00,,,0.00,WUHU216HW,2013-01-05 20:50:00,
2013-01-05 11:55:00,-4.0,-7.7,29.59,South,180,0.0,0.0,84,0.00,,,0.00,WUHU216HW,2013-01-05 20:55:00,
2013-01-05 12:00:00,-3.8,-7.6,29.59,South,180,0.0,0.0,84,0.00,,,0.00,WUHU216HW,2013-01-05 21:00:00,
2013-01-05 12:05:00,-3.8,-7.6,29.59,South,180,0.0,0.0,84,0.00,,,0.00,WUHU216HW,2013-01-05 21:05:00,
2013-01-05 12:10:00,-3.6,-7.4,29.59,South,180,0.0,0.0,84,0.00,,,0.00,WUHU216HW,2013-01-05 21:10:00,
2013-01-05 12:15:00,-3.1,-6.8,29.59,South,180,0.0,0.0,84,0.00,,,0.00,WUHU216HW,2013-01-05 21:15:00,
2013-01-05 12:20:00,-2.9,-6.7,29.58,South,180,0.0,0.0,84,0.00,,,0.00,WUHU216HW,2013-01-05 21:20:00,
2013-01-05 12:25:00,-2.9,-6.4,29.58,South,180,0.0,0.0,85,0.00,,,0.00,WUHU216HW,2013-01-05 21:25:00,
2013-01-05 12:30:00,-3.2,-7.0,29.58,South,180,0.0,0.0,84,0.00,,,0.00,WUHU216HW,2013-01-05 21:30:00,
2013-01-05 12:35:00,-3.2,-7.0,29.58,South,180,0.0,0.0,84,0.00,,,0.00,WUHU216HW,2013-01-05 21:35:00,
2013-01-05 12:40:00,-3.2,-6.7,29.57,South,180,0.0,0.0,85,0.00,,,0.00,WUHU216HW,2013-01-05 21:40:00,
2013-01-05 12:45:00,-3.1,-6.8,29.58,South,180,0.0,0.0,84,0.00,,,0.00,WUHU216HW,2013-01-05 21:45:00,
2013-01-05 12:50:00,-2.9,-6.7,29.57,South,180,0.0,0.0,84,0.00,,,0.00,WUHU216HW,2013-01-05 21:50:00,
2013-01-05 12:55:00,-2.9,-6.7,29.57,South,180,0.0,0.0,84,0.00,,,0.00,WUHU216HW,2013-01-05 21:55:00,
2013-01-05 13:00:00,-2.7,-6.5,29.57,South,180,0.0,0.0,84,0.00,,,0.00,WUHU216HW,2013-01-05 22:00:00,
2013-01-05 13:05:00,-2.7,-6.2,29.57,South,180,0.0,0.0,85,0.00,,,0.00,WUHU216HW,2013-01-05 22:05:00,
2013-01-05 13:10:00,-2.5,-6.0,29.56,South,180,0.0,0.0,85,0.00,,,0.00,WUHU216HW,2013-01-05 22:10:00,
2013-01-05 13:15:00,-2.5,-6.0,29.56,South,180,0.0,0.0,85,0.00,,,0.00,WUHU216HW,2013-01-05 22:15:00,
2013-01-05 13:20:00,-2.5,-5.7,29.56,South,180,0.0,0.0,86,0.00,,,0.00,WUHU216HW,2013-01-05 22:20:00,
2013-01-05 13:25:00,-2.3,-5.6,29.55,South,180,0.0,0.0,86,0.00,,,0.00,WUHU216HW,2013-01-05 22:25:00,
2013-01-05 13:30:00,-1.8,-5.0,29.55,South,180,0.0,0.0,86,0.00,,,0.00,WUHU216HW,2013-01-05 22:30:00,
2013-01-05 13:35:00,-1.6,-4.8,29.55,South,180,0.0,0.0,86,0.00,,,0.00,WUHU216HW,2013-01-05 22:35:00,
2013-01-05 13:40:00,-1.6,-4.8,29.54,South,180,0.0,0.0,86,0.00,,,0.00,WUHU216HW,2013-01-05 22:40:00,
2013-01-05 13:45:00,-1.3,-4.5,29.54,South,180,0.0,0.0,86,0.00,,,0.00,WUHU216HW,2013-01-05 22:45:00,
2013-01-05 13:50:00,-1.1,-4.3,29.54,South,180,0.0,0.0,86,0.00,,,0.00,WUHU216HW,2013-01-05 22:50:00,
2013-01-05 13:55:00,-0.7,-3.9,29.54,South,180,0.0,0.0,86,0.00,,,0.00,WUHU216HW,2013-01-05 22:55:00,
2013-01-05 14:00:00,-0.4,-3.6,29.54,South,180,0.0,0.0,86,0.00,,,0.00,WUHU216HW,2013-01-05 23:00:00,
2013-01-05 14:05:00,-0.2,-3.4,29.53,South,180,0.0,0.4,86,0.00,,,0.00,WUHU216HW,2013-01-05 23:05:00,
2013-01-05 14:10:00,0.0,-3.3,29.53,South,180,0.2,0.4,86,0.00,,,0.00,WUHU216HW,2013-01-05 23:10:00,
2013-01-05 14:15:00,0.2,-3.1,29.53,South,180,0.0,0.2,86,0.00,,,0.00,WUHU216HW,2013-01-05 23:15:00,
2013-01-05 14:20:00,0.4,-3.0,29.52,South,180,0.0,0.0,86,0.00,,,0.00,WUHU216HW,2013-01-05 23:20:00,
2013-01-05 14:25:00,0.4,-3.0,29.52,South,180,0.0,0.0,86,0.00,,,0.00,WUHU216HW,2013-01-05 23:25:00,
2013-01-05 14:30:00,0.4,-3.0,29.52,South,180,0.0,0.0,86,0.00,,,0.00,WUHU216HW,2013-01-05 23:30:00,
2013-01-05 14:35:00,0.5,-2.8,29.52,South,180,0.0,0.0,86,0.00,,,0.00,WUHU216HW,2013-01-05 23:35:00,
2013-01-05 14:40:00,0.7,-2.6,29.52,South,180,0.0,0.0,86,0.00,,,0.00,WUHU216HW,2013-01-05 23:40:00,
2013-01-05 14:45:00,0.9,-2.4,29.52,South,180,0.0,0.0,86,0.00,,,0.00,WUHU216HW,2013-01-05 23:45:00,
2013-01-05 14:50:00,1.1,-2.2,29.52,South,180,0.0,0.0,86,0.00,,,0.00,WUHU216HW,2013-01-05 23:50:00,
2013-01-05 14:55:00,1.1,-2.2,29.51,South,180,0.0,0.0,86,0.00,,,0.00,WUHU216HW,2013-01-05 23:55:00,
2013-01-05 15:00:00,1.1,-2.2,29.51,South,180,0.0,0.0,86,0.00,,,0.00,WUHU216HW,2013-01-06 00:00:00,
2013-01-05 15:05:00,1.1,-2.2,29.51,South,180,0.0,0.0,86,0.00,,,0.00,WUHU216HW,2013-01-06 00:05:00,
2013-01-05 15:10:00,1.1,-2.2,29.51,South,180,0.0,0.0,86,0.00,,,0.00,WUHU216HW,2013-01-06 00:10:00,
2013-01-05 15:15:00,1.1,-2.2,29.51,South,180,0.0,0.0,86,0.00,,,0.00,WUHU216HW,2013-01-06 00:15:00,
2013-01-05 15:20:00,1.1,-2.2,29.51,South,180,0.0,0.0,86,0.00,,,0.00,WUHU216HW,2013-01-06 00:20:00,
2013-01-05 15:25:00,1.1,-2.2,29.51,South,180,0.0,0.0,86,0.00,,,0.00,WUHU216HW,2013-01-06 00:25:00,
2013-01-05 15:30:00,1.1,-2.2,29.51,South,180,0.0,0.0,86,0.00,,,0.00,WUHU216HW,2013-01-06 00:30:00,
2013-01-05 15:35:00,0.9,-2.4,29.51,South,180,0.0,0.0,86,0.00,,,0.00,WUHU216HW,2013-01-06 00:35:00,
2013-01-05 15:40:00,0.9,-2.4,29.50,South,180,0.0,0.0,86,0.00,,,0.00,WUHU216HW,2013-01-06 00:40:00,
2013-01-05 15:45:00,0.9,-2.4,29.50,South,180,0.0,0.0,86,0.00,,,0.00,WUHU216HW,2013-01-06 00:45:00,
2013-01-05 15:50:00,0.9,-2.4,29.50,South,180,0.0,0.0,86,0.00,,,0.00,WUHU216HW,2013-01-06 00:50:00,
2013-01-05 15:55:00,0.7,-2.6,29.50,South,180,0.0,0.0,86,0.00,,,0.00,WUHU216HW,2013-01-06 00:55:00,
2013-01-05 16:00:00,0.7,-2.9,29.49,South,180,0.0,0.0,85,0.00,,,0.00,WUHU216HW,2013-01-06 01:00:00,
2013-01-05 16:05:00,0.5,-3.0,29.49,South,180,0.0,0.0,85,0.00,,,0.00,WUHU216HW,2013-01-06 01:05:00,
2013-01-05 16:10:00,0.4,-3.1,29.49,South,180,0.0,0.0,85,0.00,,,0.00,WUHU216HW,2013-01-06 01:10:00,
2013-01-05 16:15:00,0.4,-3.1,29.49,South,180,0.0,0.0,85,0.00,,,0.00,WUHU216HW,2013-01-06 01:15:00,
2013-01-05 16:20:00,0.2,-3.3,29.49,South,180,0.0,0.0,85,0.00,,,0.00,WUHU216HW,2013-01-06 01:20:00,
2013-01-05 16:25:00,0.2,-3.3,29.49,South,180,0.0,0.0,85,0.00,,,0.00,WUHU216HW,2013-01-06 01:25:00,
2013-01-05 16:30:00,0.0,-3.5,29.49,South,180,0.0,0.0,85,0.00,,,0.00,WUHU216HW,2013-01-06 01:30:00,
2013-01-05 16:35:00,0.0,-3.5,29.49,South,180,0.0,0.0,85,0.00,,,0.00,WUHU216HW,2013-01-06 01:35:00,
2013-01-05 16:40:00,-0.2,-3.7,29.49,South,180,0.0,0.0,85,0.00,,,0.00,WUHU216HW,2013-01-06 01:40:00,
2013-01-05 16:45:00,-0.4,-3.9,29.49,South,180,0.0,0.0,85,0.00,,,0.00,WUHU216HW,2013-01-06 01:45:00,
2013-01-05 16:50:00,-0.4,-3.9,29.48,South,180,0.0,0.0,85,0.00,,,0.00,WUHU216HW,2013-01-06 01:50:00,
2013-01-05 16:55:00,-0.4,-3.9,29.48,South,180,0.0,0.0,85,0.00,,,0.00,WUHU216HW,2013-01-06 01:55:00,
2013-01-05 17:00:00,-0.4,-3.9,29.48,South,180,0.0,0.0,85,0.00,,,0.00,WUHU216HW,2013-01-06 02:00:00,
2013-01-05 17:05:00,-0.5,-4.0,29.47,South,180,0.0,0.0,85,0.00,,,0.00,WUHU216HW,2013-01-06 02:05:00,
2013-01-05 17:10:00,-0.5,-4.0,29.47,South,180,0.0,0.0,85,0.00,,,0.00,WUHU216HW,2013-01-06 02:10:00,
2013-01-05 17:15:00,-0.7,-4.2,29.47,South,180,0.0,0.0,85,0.00,,,0.00,WUHU216HW,2013-01-06 02:15:00,
2013-01-05 17:20:00,-0.9,-4.4,29.47,South,180,0.0,0.0,85,0.00,,,0.00,WUHU216HW,2013-01-06 02:20:00,
2013-01-05 17:25:00,-1.1,-4.6,29.47,South,180,0.0,0.0,85,0.00,,,0.00,WUHU216HW,2013-01-06 02:25:00,
2013-01-05 17:30:00,-1.1,-4.6,29.46,South,180,0.0,0.0,85,0.00,,,0.00,WUHU216HW,2013-01-06 02:30:00,
2013-01-05 17:35:00,-1.1,-4.6,29.46,South,180,0.0,0.0,85,0.00,,,0.00,WUHU216HW,2013-01-06 02:35:00,
2013-01-05 17:40:00,-0.9,-4.4,29.46,South,180,0.0,0.0,85,0.00,,,0.00,WUHU216HW,2013-01-06 02:40:00,
2013-01-05 17:45:00,-0.7,-4.2,29.46,South,180,0.0,0.0,85,0.00,,,0.00,WUHU216HW,2013-01-06 02:45:00,
2013-01-05 17:50:00,-0.7,-4.2,29.46,South,180,0.0,0.0,85,0.00,,,0.00,WUHU216HW,2013-01-06 02:50:00,
2013-01-05 17:55:00,-0.9,-4.4,29.45,South,180,0.0,0.0,85,0.00,,,0.00,WUHU216HW,2013-01-06 02:55:00,
2013-01-05 18:00:00,-0.7,-4.2,29.45,South,180,0.0,0.0,85,0.00,,,0.00,WUHU216HW,2013-01-06 03:00:00,
2013-01-05 18:05:00,-0.7,-4.2,29.45,South,180,0.0,0.0,85,0.00,,,0.00,WUHU216HW,2013-01-06 03:05:00,
2013-01-05 18:10:00,-0.7,-4.2,29.45,South,180,0.0,0.0,85,0.00,,,0.00,WUHU216HW,2013-01-06 03:10:00,
2013-01-05 18:15:00,-1.1,-4.9,29.45,South,180,0.0,0.0,84,0.00,,,0.00,WUHU216HW,2013-01-06 03:15:00,
2013-01-05 18:20:00,-0.7,-4.2,29.45,South,180,0.0,0.0,85,0.00,,,0.00,WUHU216HW,2013-01-06 03:20:00,
2013-01-05 18:25:00,-0.5,-4.0,29.45,South,180,0.0,0.0,85,0.00,,,0.00,WUHU216HW,2013-01-06 03:25:00,
2013-01-05 18:30:00,-0.5,-4.0,29.45,South,180,0.0,0.0,85,0.00,,,0.00,WUHU216HW,2013-01-06 03:30:00,
2013-01-05 18:35:00,-0.4,-3.9,29.44,South,180,0.0,0.0,85,0.00,,,0.00,WUHU216HW,2013-01-06 03:35:00,
2013-01-05 18:40:00,-0.4,-3.6,29.44,South,180,0.0,0.0,86,0.00,,,0.00,WUHU216HW,2013-01-06 03:40:00,
2013-01-05 18:45:00,-0.4,-3.6,29.44,South,180,0.0,0.0,86,0.00,,,0.00,WUHU216HW,2013-01-06 03:45:00,
2013-01-05 18:50:00,-0.4,-3.9,29.44,South,180,0.0,0.2,85,0.00,,,0.00,WUHU216HW,2013-01-06 03:50:00,
2013-01-05 18:55:00,-0.5,-4.0,29.44,South,180,0.0,0.2,85,0.00,,,0.00,WUHU216HW,2013-01-06 03:55:00,
2013-01-05 19:00:00,-0.5,-4.0,29.44,South,180,0.0,0.0,85,0.00,,,0.00,WUHU216HW,2013-01-06 04:00:00,
2013-01-05 19:05:00,-0.5,-3.8,29.44,South,180,0.0,0.0,86,0.00,,,0.00,WUHU216HW,2013-01-06 04:05:00,
2013-01-05 19:10:00,-0.4,-3.6,29.44,South,180,0.0,0.0,86,0.00,,,0.00,WUHU216HW,2013-01-06 04:10:00,
2013-01-05 19:15:00,-0.4,-3.6,29.44,South,180,0.0,0.0,86,0.00,,,0.00,WUHU216HW,2013-01-06 04:15:00,
2013-01-05 19:20:00,-0.5,-4.0,29.43,South,180,0.0,0.0,85,0.00,,,0.00,WUHU216HW,2013-01-06 04:20:00,
2013-01-05 19:25:00,-0.4,-3.9,29.43,South,180,0.0,0.0,85,0.00,,,0.00,WUHU216HW,2013-01-06 04:25:00,
2013-01-05 19:30:00,-0.4,-3.9,29.43,South,180,0.0,0.0,85,0.00,,,0.00,WUHU216HW,2013-01-06 04:30:00,
2013-01-05 19:35:00,-0.4,-3.9,29.43,South,180,0.0,0.0,85,0.00,,,0.00,WUHU216HW,2013-01-06 04:35:00,
2013-01-05 19:40:00,-0.4,-3.6,29.43,South,180,0.0,0.0,86,0.00,,,0.00,WUHU216HW,2013-01-06 04:40:00,
2013-01-05 19:45:00,-0.4,-3.9,29.43,South,180,0.0,0.0,85,0.00,,,0.00,WUHU216HW,2013-01-06 04:45:00,
2013-01-05 19:50:00,-0.4,-3.9,29.43,South,180,0.0,0.0,85,0.00,,,0.00,WUHU216HW,2013-01-06 04:50:00,
2013-01-05 19:55:00,-0.4,-3.6,29.43,South,180,0.0,0.0,86,0.00,,,0.00,WUHU216HW,2013-01-06 04:55:00,
2013-01-05 20:00:00,-0.4,-3.6,29.43,South,180,0.0,0.0,86,0.00,,,0.00,WUHU216HW,2013-01-06 05:00:00,
2013-01-05 20:05:00,-0.2,-3.4,29.43,South,180,0.0,0.0,86,0.00,,,0.00,WUHU216HW,2013-01-06 05:05:00,
2013-01-05 20:10:00,-0.2,-3.4,29.42,South,180,0.0,0.0,86,0.00,,,0.00,WUHU216HW,2013-01-06 05:10:00,
2013-01-05 20:15:00,0.0,-3.3,29.42,South,180,0.0,0.0,86,0.00,,,0.00,WUHU216HW,2013-01-06 05:15:00,
2013-01-05 20:20:00,-0.2,-3.4,29.42,South,180,0.0,0.0,86,0.00,,,0.00,WUHU216HW,2013-01-06 05:20:00,
2013-01-05 20:25:00,-0.2,-3.4,29.42,South,180,0.0,0.0,86,0.00,,,0.00,WUHU216HW,2013-01-06 05:25:00,
2013-01-05 20:30:00,-0.2,-3.4,29.42,South,180,0.0,0.0,86,0.00,,,0.00,WUHU216HW,2013-01-06 05:30:00,
2013-01-05 20:35:00,0.0,-3.3,29.42,South,180,0.0,0.0,86,0.00,,,0.00,WUHU216HW,2013-01-06 05:35:00,
2013-01-05 20:40:00,0.0,-3.5,29.42,South,180,0.0,0.0,85,0.00,,,0.00,WUHU216HW,2013-01-06 05:40:00,
2013-01-05 20:45:00,-0.2,-3.7,29.42,South,180,0.0,0.0,85,0.00,,,0.00,WUHU216HW,2013-01-06 05:45:00,
2013-01-05 20:50:00,-0.2,-3.7,29.42,South,180,0.0,0.0,85,0.00,,,0.00,WUHU216HW,2013-01-06 05:50:00,
2013-01-05 20:55:00,-0.4,-3.9,29.41,South,180,0.0,0.0,85,0.00,,,0.00,WUHU216HW,2013-01-06 05:55:00,
2013-01-05 21:00:00,-0.4,-3.9,29.41,South,180,0.0,0.0,85,0.00,,,0.00,WUHU216HW,2013-01-06 06:00:00,
2013-01-05 21:05:00,-0.4,-3.6,29.41,South,180,0.0,0.0,86,0.00,,,0.00,WUHU216HW,2013-01-06 06:05:00,
2013-01-05 21:10:00,-0.4,-3.9,29.41,South,180,0.0,0.0,85,0.00,,,0.00,WUHU216HW,2013-01-06 06:10:00,
2013-01-05 21:15:00,-0.4,-3.9,29.41,South,180,0.0,0.0,85,0.00,,,0.00,WUHU216HW,2013-01-06 06:15:00,
2013-01-05 21:20:00,-0.5,-4.0,29.41,South,180,0.0,0.0,85,0.00,,,0.00,WUHU216HW,2013-01-06 06:20:00,
2013-01-05 21:25:00,-0.5,-4.0,29.41,South,180,0.0,0.0,85,0.00,,,0.00,WUHU216HW,2013-01-06 06:25:00,
2013-01-05 21:30:00,-0.5,-4.0,29.41,South,180,0.0,0.0,85,0.00,,,0.00,WUHU216HW,2013-01-06 06:30:00,
2013-01-05 21:35:00,-0.7,-4.2,29.41,South,180,0.0,0.0,85,0.00,,,0.00,WUHU216HW,2013-01-06 06:35:00,
2013-01-05 21:40:00,-0.7,-4.2,29.41,South,180,0.0,0.0,85,0.00,,,0.00,WUHU216HW,2013-01-06 06:40:00,
2013-01-05 21:45:00,-1.1,-4.6,29.40,South,180,0.0,0.0,85,0.00,,,0.00,WUHU216HW,2013-01-06 06:45:00,
2013-01-05 21:50:00,-1.1,-4.6,29.40,South,180,0.0,0.0,85,0.00,,,0.00,WUHU216HW,2013-01-06 06:50:00,
2013-01-05 21:55:00,-1.3,-4.8,29.40,South,180,0.0,0.0,85,0.00,,,0.00,WUHU216HW,2013-01-06 06:55:00,
2013-01-05 22:00:00,-1.3,-4.8,29.40,South,180,0.0,0.0,85,0.00,,,0.00,WUHU216HW,2013-01-06 07:00:00,
2013-01-05 22:05:00,-1.4,-4.9,29.40,South,180,0.0,0.0,85,0.00,,,0.00,WUHU216HW,2013-01-06 07:05:00,
2013-01-05 22:10:00,-1.4,-4.9,29.40,South,180,0.0,0.0,85,0.00,,,0.00,WUHU216HW,2013-01-06 07:10:00,
2013-01-05 22:15:00,-1.6,-5.1,29.40,South,180,0.0,0.0,85,0.00,,,0.00,WUHU216HW,2013-01-06 07:15:00,
2013-01-05 22:20:00,-1.8,-5.3,29.40,South,180,0.0,0.0,85,0.00,,,0.00,WUHU216HW,2013-01-06 07:20:00,
2013-01-05 22:25:00,-1.8,-5.3,29.40,South,180,0.0,0.0,85,0.00,,,0.00,WUHU216HW,2013-01-06 07:25:00,
2013-01-05 22:30:00,-1.8,-5.3,29.40,South,180,0.0,0.0,85,0.00,,,0.00,WUHU216HW,2013-01-06 07:30:00,
2013-01-05 22:35:00,-1.8,-5.3,29.40,South,180,0.0,0.0,85,0.00,,,0.00,WUHU216HW,2013-01-06 07:35:00,
2013-01-05 22:40:00,-2.0,-5.5,29.40,South,180,0.0,0.0,85,0.00,,,0.00,WUHU216HW,2013-01-06 07:40:00,
2013-01-05 22:45:00,-2.0,-5.5,29.40,South,180,0.0,0.0,85,0.00,,,0.00,WUHU216HW,2013-01-06 07:45:00,
2013-01-05 22:50:00,-2.2,-5.7,29.40,South,180,0.0,0.0,85,0.00,,,0.00,WUHU216HW,2013-01-06 07:50:00,
2013-01-05 22:55:00,-2.2,-5.7,29.40,South,180,0.0,0.0,85,0.00,,,0.00,WUHU216HW,2013-01-06 07:55:00,
2013-01-05 23:00:00,-2.3,-5.8,29.40,South,180,0.0,0.0,85,0.00,,,0.00,WUHU216HW,2013-01-06 08:00:00,
2013-01-05 23:05:00,-2.3,-5.8,29.40,South,180,0.0,0.0,85,0.00,,,0.00,WUHU216HW,2013-01-06 08:05:00,
2013-01-05 23:10:00,-2.5,-6.0,29.40,South,180,0.0,0.0,85,0.00,,,0.00,WUHU216HW,2013-01-06 08:10:00,
2013-01-05 23:15:00,-2.5,-6.0,29.40,South,180,0.3,0.4,85,0.00,,,0.00,WUHU216HW,2013-01-06 08:15:00,
2013-01-05 23:20:00,-2.5,-6.0,29.40,South,180,0.0,0.4,85,0.00,,,0.00,WUHU216HW,2013-01-06 08:20:00,
2013-01-05 23:25:00,-2.5,-6.0,29.40,South,180,0.0,0.0,85,0.00,,,0.00,WUHU216HW,2013-01-06 08:25:00,
2013-01-05 23:30:00,-2.5,-6.0,29.40,South,180,0.0,0.0,85,0.00,,,0.00,WUHU216HW,2013-01-06 08:30:00,
2013-01-05 23:35:00,-2.7,-6.5,29.41,South,180,0.0,0.0,84,0.00,,,0.00,WUHU216HW,2013-01-06 08:35:00,
2013-01-05 23:40:00,-2.9,-6.7,29.40,South,180,0.0,0.0,84,0.00,,,0.00,WUHU216HW,2013-01-06 08:40:00,
2013-01-05 23:45:00,-2.9,-6.7,29.41,South,180,0.0,0.0,84,0.00,,,0.00,WUHU216HW,2013-01-06 08:45:00,
2013-01-05 23:50:00,-3.1,-6.8,29.40,South,180,0.0,0.0,84,0.00,,,0.00,WUHU216HW,2013-01-06 08:50:00,
2013-01-05 23:55:00,-3.2,-6.7,29.40,South,180,0.0,0.0,85,0.00,,,0.00,WUHU216HW,2013-01-06 08:55:00,